This is the latest recevied weather packets stored in our database for station/object N3SBK. If no packets are shown the sender has not sent any weather packets the latest 10 day(s).
| Time | Temp. | Humidity | Pressure | Rain* | Wind** | Luminosity | Snow |
|---|---|---|---|---|---|---|---|
| 1787927155 | 19.44° C | 96% | 1011.5 hPa | 0 mm | - | 44 W/m² | - |
| 1787926854 | 18.89° C | 97% | 1011.5 hPa | 0 mm | - | 47 W/m² | - |
| 1787926555 | 18.89° C | 97% | 1011.5 hPa | 0 mm | - | 106 W/m² | - |
| 1787926253 | 18.89° C | 97% | 1011.5 hPa | 0 mm | - | 72 W/m² | - |
| 1787925947 | 18.89° C | 98% | 1011.5 hPa | 0 mm | - | 130 W/m² | - |
| 1787925642 | 18.33° C | 98% | 1011.3 hPa | 0 mm | - | 114 W/m² | - |
| 1787925337 | 18.33° C | 98% | 1011.1 hPa | 0 mm | - | 99 W/m² | - |
| 1787925036 | 18.33° C | 98% | 1011.5 hPa | 0 mm | - | 127 W/m² | - |
| 1787924732 | 18.33° C | 98% | 1011.3 hPa | 0 mm | - | 112 W/m² | - |
| 1787924431 | 18.33° C | 98% | 1011.3 hPa | 0 mm | - | 104 W/m² | - |
| 1787924126 | 18.33° C | 99% | 1011.2 hPa | 0 mm | - | 119 W/m² | - |
| 1787923821 | 18.33° C | 99% | 1011.1 hPa | 0 mm | - | 86 W/m² | - |
| 1787923521 | 17.78° C | 99% | 1011.2 hPa | 0 mm | - | 109 W/m² | - |
| 1787923217 | 17.78° C | 99% | 1011 hPa | 0 mm | - | 72 W/m² | - |
| 1787922913 | 17.78° C | 99% | 1011 hPa | 0 mm | - | 53 W/m² | - |
| 1787922611 | 17.22° C | 99% | 1010.9 hPa | 0 mm | - | 40 W/m² | - |
| 1787922310 | 17.22° C | 99% | 1010.8 hPa | 0 mm | - | 40 W/m² | - |
| 1787922008 | 17.22° C | 99% | 1010.7 hPa | 0 mm | - | 34 W/m² | - |
| 1787921703 | 16.67° C | 99% | 1010.7 hPa | 0 mm | - | 32 W/m² | - |
| 1787921402 | 16.67° C | 99% | 1010.8 hPa | 0 mm | - | 31 W/m² | - |
| 1787921097 | 16.67° C | 99% | 1010.6 hPa | 0 mm | - | 29 W/m² | - |
| 1787920797 | 16.11° C | 99% | 1010.6 hPa | 0 mm | - | 29 W/m² | - |
| 1787920492 | 16.11° C | 99% | 1010.8 hPa | 0 mm | - | 31 W/m² | - |
| 1787920189 | 16.11° C | 99% | 1010.6 hPa | 0 mm | - | 44 W/m² | - |
| 1787919885 | 16.11° C | 99% | 1010.7 hPa | 0 mm | - | 49 W/m² | - |
* Rain latest hour (hover to see other rain measurements)
** Current wind speed in m/s (hover to see current wind gust speed)